EHI
0 0 0 0 0 0 0 0 0 0 0 0 0 0 0 0 0 0 0 0 0 0 0 0 0 0 0 0 0 0 0 0 0 0 0 0 0 0 0 0 0 0 0
0 0 0 0 0 0 0 0 0 0 0 0 0 0 0 0 0 0 0 0 0 0 0 0 0 0 0 0 0 0 0 0 0 0 0 0 0 0 0 0 0 0 0
0 0 0 0 0 0 0 0 0 0 0 0 0 0 0 0 0 0 0 0 0 0 0 0 0 0 0 0 0 0 0 0 0 0 0 0 0 0 0 0 0 0 0
0 0 0 0 0 0 0 0 0 0 0 0 0 0 0 0 0 0 0 0 0 0 0 0 0 0 0 0 0 0 0 0 0 0 0 0 0 0 0 0 0 0 0
0 0 0 0 0 0 0 0 0 0 0 0 0 0 0 0 0 0 0 0 0 0 0 0 0 0 0 0 0 0 0 0 0 0 0 0 0 0 0 0 0 0 0
0 0 0 0 0 0 0 0 0 0 0 0 0 0 0 0 0 0 0 0 0 0 0 0 0 0 0 0 0 0 0 0 0 0 0 0 0 0 0 0 0 0 0
0 0 0 0 0 0 0 0 0 0 0 0 0 0 0 0 0 0 0 0 0 0 0 0 0 0 0 0 0 0 0 0 0 0 0 0 0 0 0 0 0 0 0
0 0 0 0 0 0 0 0 0 0 0 0 0 0 0 0 0 0 0 0 0 0 0 0 0 0 0 0 0 0 0 0 0 0 0 0 0 0 0 0 0 0 0
0 0 0 0 0 0 0 0 0 0 0 0 0 0 0 0 0 0 0 0 0 0 0 0 0 0 0 0 0 0 0 0 0 0 0 0 0 0 0 0 0 0 0
0 0 0 0 0 0 0 0 0 0 0 0 0 0 0 0 0 0 0 0 0 0 0 0 0 0 0 0 0 0 0 0 0 0 0 0 0 0 0 0 0 0 0
0 0 0 0 0 0 0 0 0 0 0 0 0 0 0 0 0 0 0 0 0 0 0 0 0 0 0 0 0 0 0 0 0 0 0 0 0 0 0 0 0 0 0
0 0 0 0 0 0 0 0 0 0 0 0 0 0 0 0 0 0 0 0 0 0 0 0 0 0 0 0 0 0 0 0 0 0 0 0 0 0 0 0 0 0 0
0 0 0 0 0 0 0 0 0 0 0 0 0 0 0 0 0 0 0 0 0 0 0 0 0 0 0 0 0 0 0 0 0 0 0 0 0 0 0 0 0 0 0
0 0 0 0 0 0 0 0 0 0 0 0 0 0 0 0 0 0 0 0 0 0 0 0 0 0 0 0 0 0 0 0 0 0 0 0 0 0 0 0 0 0 0
0 0 0 0 0 0 0 0 0 0 0 0 0 0 0 0 0 0 0 0 0 0 0 0 0 0 0 0 0 0 0 0 0 0 0 0 0 0 0 0 0 0 0
0 0 0 0 0 0 0 0 0 0 0 0 0 0 0 0 0 0 0 0 0 0 0 0 0 0 0 0 0 0 0 0 0 0 0 0 0 0 0 0 0 0 0
0 0 0 0 0 0 0 0 0 0 0 0 0 0 0 0 0 0 0 0 0 0 0 0 0 0 0 0 0 0 0 0 0 0 0 0 0 0 0 0 0 0 0
0 0 0 0 0 0 0 0 0 0 0 0 0 0 0 0 0 0 0 0 0 0 0 0 0 0 0 0 0 0 0 0 0 0 0 0 0 0 0 0 0 0 0
0 0 0 0 0 0 0 0 0 0 0 0 0 0 0 0 0 0 0 0 0 0 0 0 0 0 0 0 0 0 0 0 0 0 0 0 0 0 0 0 0 0 0
0 0 0 0 0 0 0 0 0 0 0 0 0 0 0 0 0 0 0 0 0 0 0 0 0 0 0 0 0 0 0 0 0 0 0 0 0 0 0 0 0 0 0
0 0 0 0 0 0 0 0 0 0 0 0 0 0 0 0 0 0 0 0 0 0 0 0 0 0 0 0 0 0 0 0 0 0 0 0 0 0 0 0 0 0 0
0 0 0 0 0 0 0 0 0 0 0 0 0 0 0 0 0 0 0 0 0 0 0 0 0 0 0 0 0 0 0 0 0 0 0 0 0 0 0 0 0 0 0
0 0 0 0 0 0 0 0 0 0 0 0 0 0 0 0 0 0 0 0 0 0 0 0 0 0 0 0 0 0 0 0 0 0 0 0 0 0 0 0 0 0 0
0 0 0 0 0 0 0 0 0 0 0 0 0 0 0 0 0 0 0 0 0 0 0 0 0 0 0 0 0 0 0 0 0 0 0 0 0 0 0 0 0 0 0
0 0 0 0 0 0 0 0 0 0 0 0 0 0 0 0 0 0 0 0 0 0 0 0 0 0 0 0 0 0 0 0 0 0 0 0 0 0 0 0 0 0 0
0 0 0 0 0 0 0 0 0 0 0 0 0 0 0 0 0 0 0 0 0 0 0 0 0 0 0 0 0 0 0 0 0 0 0 0 0 0 0 0 0 0 0
Wind_Speed
4 3 3 3 3 3 4 4 4 4 5 7 9 9 8 8 8 6 4 5 6 6 5 5 5 5 4 4 4 4 4 4 3 2 2 2 4 5 4 3 3 3 4
5 5 5 5 5 4 4 4 4 3 4 4 6 9 9 8 7 8 8 7 6 4 4 5 8 6 6 5 5 6 6 5 4 4 2 2 2 4 4 3 1 2 2
5 5 6 6 6 6 6 4 2 1 0 0 1 4 6 6 6 8 7 6 4 4 5 7 8 8 7 6 6 5 6 5 3 4 4 2 2 3 3 2 1 1 1
5 5 6 7 7 8 7 5 4 3 3 3 3 4 4 5 7 8 9 7 6 6 6 6 7 8 8 8 7 7 6 6 4 4 4 3 3 3 3 3 3 1 1
5 6 7 6 6 7 7 7 6 6 6 5 4 4 4 5 6 8 8 7 7 6 6 6 6 9 11 10 8 7 8 7 5 5 4 3 3 5 6 4 3 2 2
6 7 6 5 6 7 6 6 7 6 6 5 5 5 4 3 5 6 5 6 7 8 6 5 5 9 12 14 14 14 14 12 10 7 5 4 5 5 5 5 5 3 3
7 7 6 6 7 7 5 6 7 6 5 5 5 5 4 4 6 8 7 5 6 6 6 5 4 3 5 5 11 14 15 17 15 12 10 7 8 9 9 6 6 5 3
6 6 6 6 7 6 6 7 6 5 5 5 4 4 2 5 8 7 6 3 4 4 4 4 4 3 3 3 4 6 8 10 12 10 10 9 7 10 10 8 8 6 3
4 4 4 5 6 5 5 5 5 5 5 4 3 3 3 4 5 5 3 1 2 2 3 5 6 5 3 3 4 6 6 5 6 7 7 8 13 16 14 10 8 7 4
5 3 3 5 6 5 6 5 4 6 6 5 4 3 1 2 4 3 1 1 0 1 2 3 6 7 6 6 5 4 5 5 5 6 7 9 10 13 18 13 11 9 5
4 4 3 1 2 3 7 6 6 6 6 4 3 2 0 2 3 3 4 2 1 1 1 2 2 4 5 3 5 4 2 2 4 5 4 4 4 6 8 7 8 8 7
4 4 4 3 2 3 4 5 6 6 4 2 1 2 1 1 3 4 4 6 5 3 2 2 2 2 4 3 3 3 3 3 3 4 4 5 6 6 6 6 6 5 4
4 4 3 4 3 3 3 4 2 2 3 3 1 1 2 1 2 3 4 6 7 3 1 2 2 4 3 3 2 3 3 3 3 3 4 6 5 5 5 5 4 4 3
4 3 3 4 4 3 1 1 1 1 1 1 2 3 3 2 2 2 2 2 4 3 3 4 4 3 2 1 1 2 2 2 3 3 3 2 3 4 5 4 4 4 3
4 3 3 3 4 4 2 0 1 1 2 1 2 2 2 3 3 4 4 3 3 5 5 4 3 3 2 1 1 0 1 2 2 1 2 2 3 4 4 5 4 4 3
3 2 1 2 2 3 3 3 4 4 3 2 1 0 1 4 4 3 6 8 11 10 4 2 1 1 1 1 1 1 1 2 2 2 3 3 4 5 5 5 4 6 7
3 3 2 1 1 2 2 2 1 2 6 9 9 7 6 5 4 3 7 10 11 6 2 2 2 3 3 3 3 2 2 2 2 3 3 4 4 5 6 7 8 7 5
3 3 3 2 1 1 2 2 1 1 1 3 6 7 8 9 8 9 9 6 4 1 1 1 2 2 3 3 3 3 3 2 2 3 3 3 3 3 5 6 7 8 6
3 2 2 1 1 2 2 1 1 1 1 1 1 3 5 7 6 5 3 2 1 1 1 2 2 2 3 3 3 3 3 3 3 3 3 3 3 3 3 4 5 8 7
3 4 3 2 2 2 2 2 2 2 3 2 2 2 2 2 2 1 1 1 1 2 2 2 3 3 3 3 3 3 3 3 3 3 3 2 3 3 3 3 4 4 3
2 3 4 2 2 2 2 3 3 3 3 2 1 1 2 1 1 1 1 1 2 2 2 2 2 2 2 2 3 3 3 3 3 3 3 3 3 3 3 3 3 2 3
3 2 2 2 2 2 3 3 3 2 2 2 1 1 2 0 1 2 2 2 2 2 2 2 2 2 2 2 3 3 3 4 4 4 4 4 4 4 4 3 3 3 3
3 3 2 2 2 3 3 3 2 2 1 1 1 1 1 1 1 2 2 1 1 1 2 2 3 3 3 3 3 3 4 4 4 4 4 4 4 4 4 4 4 5 6
3 3 3 3 3 4 3 3 2 2 2 2 2 2 1 1 2 2 3 2 1 1 1 2 2 3 4 3 3 3 3 4 3 3 5 4 5 5 5 4 5 5 5
3 3 3 3 3 3 3 2 2 2 2 2 2 2 2 2 3 3 3 3 3 3 3 3 2 3 4 5 5 4 5 6 4 4 4 4 5 6 5 5 5 4 4
3 4 3 3 3 3 2 2 2 2 2 3 3 3 3 3 3 3 3 3 3 3 3 3 3 4 5 5 6 6 4 5 5 5 4 4 4 4 4 4 5 5 5
Wind_Direction
222 225 219 216 210 187 179 197 199 195 192 187 179 180 185 193 202 212 205 216 216 210 197 192 210 196 192 181 175 171 170 158 147 155 143 160 144 150 109 74 62 44 32
201 211 216 195 187 190 191 192 192 208 207 186 178 175 181 197 200 196 200 224 229 218 221 211 220 192 199 186 183 188 186 176 149 155 148 147 154 153 129 113 81 62 37
196 198 211 199 186 192 203 197 178 180 199 330 190 178 182 187 204 210 200 223 217 213 219 221 222 187 199 190 190 194 189 176 154 140 142 144 145 141 125 122 129 39 43
205 213 213 206 199 194 194 193 183 181 188 199 197 187 193 201 203 211 207 207 216 213 210 217 223 198 201 189 190 189 176 170 159 144 137 151 147 140 139 160 179 207 191
206 224 234 213 203 198 192 185 177 177 187 188 189 203 218 220 210 201 205 202 221 235 217 191 210 227 222 203 187 176 168 170 167 158 148 152 154 160 184 168 159 165 227
219 228 235 222 215 212 195 178 173 182 190 185 192 220 237 240 256 258 224 196 212 221 225 199 205 229 226 214 201 188 180 177 180 181 167 169 173 159 150 149 139 158 212
223 231 218 218 220 219 197 176 179 183 182 188 192 205 232 258 267 259 247 220 214 213 205 189 197 202 211 213 211 202 194 192 186 184 186 177 170 174 152 152 163 168 187
231 237 229 220 224 215 198 196 186 183 184 184 194 199 241 278 284 295 295 236 210 216 203 174 172 191 182 215 218 196 192 199 199 190 192 182 160 157 163 164 162 140 103
261 250 249 240 232 195 210 206 163 158 155 164 158 178 205 259 287 296 294 254 235 215 182 178 159 146 159 163 178 184 179 186 188 171 158 162 160 159 151 133 142 156 169
329 312 245 230 225 192 171 166 142 132 126 131 138 130 174 269 287 280 165 127 146 148 188 203 175 150 135 131 127 148 189 195 166 143 144 156 162 170 171 167 165 171 156
29 45 62 156 203 171 149 148 145 135 125 119 98 84 204 255 282 273 180 155 188 178 207 227 228 165 134 131 145 146 161 200 168 151 147 146 158 177 185 180 175 172 169
61 67 74 93 112 137 141 145 149 141 146 135 56 13 316 255 282 280 213 193 190 192 218 246 272 225 165 209 180 148 178 196 187 172 176 178 192 195 190 179 174 178 180
63 65 75 73 84 121 143 147 151 160 151 140 200 267 286 278 268 291 267 211 192 176 196 201 223 238 209 171 133 122 163 180 190 200 212 212 210 188 162 146 145 144 120
62 60 74 84 82 67 74 137 115 20 349 49 307 295 298 301 269 261 278 186 160 117 86 73 65 57 95 129 121 148 168 187 192 198 213 211 169 163 159 142 136 149 140
96 83 65 80 105 95 63 354 198 250 263 246 267 254 246 259 244 204 194 158 138 128 103 69 51 35 31 68 89 178 222 232 227 209 199 191 186 184 175 164 146 153 174
116 107 90 88 94 111 110 75 47 41 32 38 46 72 288 282 285 208 172 142 139 132 106 113 129 156 240 236 222 240 243 244 241 235 231 222 206 202 187 176 170 177 187
148 154 153 140 115 113 106 120 121 46 41 34 26 28 42 31 25 121 139 133 138 130 114 152 175 184 199 219 234 231 241 250 254 244 231 220 213 209 203 191 181 182 178
152 158 151 158 156 158 165 171 179 198 1 28 25 29 46 54 72 101 112 108 122 112 136 174 208 214 210 208 216 225 244 261 261 251 237 213 198 205 205 198 186 177 164
164 168 143 130 138 150 162 163 189 179 121 105 72 52 59 66 78 98 86 89 163 226 222 235 237 231 229 225 225 223 222 226 239 243 234 218 193 195 201 189 177 164 163
163 149 134 117 94 96 111 110 103 100 98 92 84 55 43 52 60 54 40 24 289 263 238 237 245 243 242 234 229 231 231 226 227 229 228 218 199 193 197 196 168 162 153
144 125 117 107 96 94 95 97 109 115 119 121 124 205 169 95 18 327 298 277 268 273 273 266 261 257 252 238 225 222 226 233 225 220 215 202 193 187 193 182 157 146 124
143 136 131 132 122 103 94 89 97 108 114 116 108 144 177 280 18 9 343 324 312 301 299 299 293 274 259 249 243 236 228 228 223 212 207 202 198 189 179 179 162 148 143
158 153 147 132 116 116 102 91 102 119 122 120 124 100 40 20 5 349 334 326 291 285 284 271 273 275 258 233 226 230 233 231 224 213 201 194 192 188 177 184 179 168 178
163 154 139 129 113 112 113 112 114 110 106 105 109 100 80 40 14 7 7 14 359 314 297 293 294 300 297 276 250 237 241 249 234 210 200 190 187 187 186 183 187 183 174
158 141 122 116 123 119 118 122 122 99 85 90 86 84 74 54 38 26 21 12 360 348 338 327 313 303 299 289 277 259 247 252 244 212 194 195 192 189 194 197 188 178 173
155 132 122 116 115 115 108 98 100 100 87 74 73 71 66 56 41 27 14 6 355 349 346 346 351 1 356 338 327 317 287 258 243 216 195 189 184 180 187 193 189 182 187